Location: Newark
(48.8833°N, 0.9236°W)
Time: 14:43:02
(UTC+00:00)

Tiros 1 despin weight - Pass Details

Date: 24 November 2019
Orbit: 594 x 642 km, 48.2° (Epoch: 04 December)

Event Time Altitude Azimuth Distance (km) Brightness Sun altitude
Rises 17:17:19 0° 281° (W) 2,842 ? -10.2°
Reaches altitude 10° 17:20:02 10° 265° (W) 1,942 ? -10.6°
Maximum altitude 17:23:22 21° 217° (SW) 1,376 ? -11.1°
Drops below altitude 10° 17:26:43 10° 168° (SSE) 1,955 ? -11.6°
Sets 17:29:28 0° 153° (SSE) 2,865 ? -12.1°
